Location: Bucharest
(44.4268°N, 26.1025°E)
Time: 01:41:57
(UTC+03:00)

O/OREOS (USA 219) - Pass Details

Date: 10 July 2022
Orbit: 621 x 646 km, 72.0° (Epoch: 22 May)

Event Time Altitude Azimuth Distance (km) Brightness Sun altitude
Rises 23:10:21 0° 340° (NNW) 2,968 ? -17.0°
Reaches altitude 10° 23:12:43 10° 347° (NNW) 2,054 ? -17.2°
Maximum altitude 23:17:11 47° 61° (ENE) 860 ? -17.6°
Enters shadow 23:19:03 30° 116° (ESE) 1,159 ? -17.8°
